Time,TemperatureF,DewpointF,PressureIn,WindDirection,WindDirectionDegrees,WindSpeedMPH,WindSpeedGustMPH,Humidity,HourlyPrecipIn,Conditions,Clouds,dailyrainin,SoftwareType,DateUTC
2013-07-27 00:02:00,58.5,52.0,30.00,North,0,1.1,2.2,79,0.00,,,0.00,WUHU216HW,2013-07-27 07:02:00,
2013-07-27 00:07:00,58.5,52.0,30.00,NNE,23,1.3,2.2,79,0.00,,,0.00,WUHU216HW,2013-07-27 07:07:00,
2013-07-27 00:12:00,58.3,52.2,30.00,NE,45,0.2,1.3,80,0.00,,,0.00,WUHU216HW,2013-07-27 07:12:00,
2013-07-27 00:17:00,58.1,52.0,30.00,North,0,0.4,2.5,80,0.00,,,0.00,WUHU216HW,2013-07-27 07:17:00,
2013-07-27 00:22:00,58.1,52.0,29.99,North,0,0.0,2.5,80,0.00,,,0.00,WUHU216HW,2013-07-27 07:22:00,
2013-07-27 00:27:00,58.0,51.8,29.99,NNE,23,0.7,1.1,80,0.00,,,0.00,WUHU216HW,2013-07-27 07:27:00,
2013-07-27 00:32:00,58.0,52.2,29.99,NNE,23,0.2,1.1,81,0.00,,,0.00,WUHU216HW,2013-07-27 07:32:00,
2013-07-27 00:37:00,57.8,52.0,29.99,NNE,23,0.2,1.8,81,0.00,,,0.00,WUHU216HW,2013-07-27 07:37:00,
2013-07-27 00:42:00,57.8,52.0,29.99,ENE,68,0.7,1.8,81,0.00,,,0.00,WUHU216HW,2013-07-27 07:42:00,
2013-07-27 00:47:00,57.6,51.9,29.98,NNE,23,0.4,1.8,81,0.00,,,0.00,WUHU216HW,2013-07-27 07:47:00,
2013-07-27 00:52:00,57.6,51.9,29.98,NNE,23,1.1,2.2,81,0.00,,,0.00,WUHU216HW,2013-07-27 07:52:00,
2013-07-27 00:57:00,57.4,51.9,29.98,NE,45,1.1,2.2,82,0.00,,,0.00,WUHU216HW,2013-07-27 07:57:00,
2013-07-27 01:02:00,57.4,51.9,29.98,NNW,338,0.4,1.1,82,0.00,,,0.00,WUHU216HW,2013-07-27 08:02:00,
2013-07-27 01:07:00,57.2,51.8,29.98,North,0,0.4,1.8,82,0.00,,,0.00,WUHU216HW,2013-07-27 08:07:00,
2013-07-27 01:12:00,57.2,52.1,29.98,NE,45,1.6,1.8,83,0.00,,,0.00,WUHU216HW,2013-07-27 08:12:00,
2013-07-27 01:17:00,57.2,52.1,29.97,North,0,0.9,1.6,83,0.00,,,0.00,WUHU216HW,2013-07-27 08:17:00,
2013-07-27 01:22:00,57.2,52.1,29.97,North,0,2.0,2.0,83,0.00,,,0.00,WUHU216HW,2013-07-27 08:22:00,
2013-07-27 01:27:00,57.1,51.9,29.97,North,0,1.3,2.5,83,0.00,,,0.00,WUHU216HW,2013-07-27 08:27:00,
2013-07-27 01:32:00,57.1,51.9,29.97,North,0,0.7,2.5,83,0.00,,,0.00,WUHU216HW,2013-07-27 08:32:00,
2013-07-27 01:37:00,57.1,51.9,29.97,West,270,0.4,1.3,83,0.00,,,0.00,WUHU216HW,2013-07-27 08:37:00,
2013-07-27 01:42:00,56.9,51.8,29.97,NNE,23,0.0,1.3,83,0.00,,,0.00,WUHU216HW,2013-07-27 08:42:00,
2013-07-27 01:47:00,56.9,51.8,29.97,NNE,23,1.1,1.3,83,0.00,,,0.00,WUHU216HW,2013-07-27 08:47:00,
2013-07-27 01:52:00,56.9,52.0,29.97,NNE,23,0.9,1.3,84,0.00,,,0.00,WUHU216HW,2013-07-27 08:52:00,
2013-07-27 01:57:00,56.9,51.8,29.97,NNW,338,0.2,1.3,83,0.00,,,0.00,WUHU216HW,2013-07-27 08:57:00,
2013-07-27 02:02:00,56.7,51.8,29.97,WNW,293,0.4,1.1,84,0.00,,,0.00,WUHU216HW,2013-07-27 09:02:00,
2013-07-27 02:07:00,56.7,52.2,29.96,North,0,0.0,1.6,85,0.00,,,0.00,WUHU216HW,2013-07-27 09:07:00,
2013-07-27 02:12:00,56.7,51.8,29.96,North,0,0.0,1.6,84,0.00,,,0.00,WUHU216HW,2013-07-27 09:12:00,
2013-07-27 02:17:00,56.5,52.0,29.96,North,0,0.0,0.4,85,0.00,,,0.00,WUHU216HW,2013-07-27 09:17:00,
2013-07-27 02:22:00,56.5,52.0,29.96,North,0,0.2,0.4,85,0.00,,,0.00,WUHU216HW,2013-07-27 09:22:00,
2013-07-27 02:27:00,56.5,51.7,29.96,NNE,23,1.1,1.8,84,0.00,,,0.00,WUHU216HW,2013-07-27 09:27:00,
2013-07-27 02:32:00,56.5,51.7,29.96,North,0,1.8,1.8,84,0.00,,,0.00,WUHU216HW,2013-07-27 09:32:00,
2013-07-27 02:37:00,56.5,51.7,29.96,North,0,0.0,1.8,84,0.00,,,0.00,WUHU216HW,2013-07-27 09:37:00,
2013-07-27 02:42:00,56.5,51.7,29.96,NE,45,1.3,1.3,84,0.00,,,0.00,WUHU216HW,2013-07-27 09:42:00,
2013-07-27 02:47:00,56.5,52.0,29.96,NNE,23,0.4,1.3,85,0.00,,,0.00,WUHU216HW,2013-07-27 09:47:00,
2013-07-27 02:52:00,56.3,51.8,29.96,North,0,0.4,0.9,85,0.00,,,0.00,WUHU216HW,2013-07-27 09:52:00,
2013-07-27 02:57:00,56.3,51.8,29.96,North,0,0.7,0.7,85,0.00,,,0.00,WUHU216HW,2013-07-27 09:57:00,
2013-07-27 03:02:00,56.3,51.8,29.96,North,0,0.4,1.6,85,0.00,,,0.00,WUHU216HW,2013-07-27 10:02:00,
2013-07-27 03:07:00,56.2,51.7,29.96,North,0,0.0,1.6,85,0.00,,,0.00,WUHU216HW,2013-07-27 10:07:00,
2013-07-27 03:12:00,56.2,51.7,29.96,North,0,0.7,0.7,85,0.00,,,0.00,WUHU216HW,2013-07-27 10:12:00,
2013-07-27 03:17:00,56.2,51.7,29.96,NNW,338,0.9,2.7,85,0.00,,,0.00,WUHU216HW,2013-07-27 10:17:00,
2013-07-27 03:22:00,56.2,52.0,29.96,NNE,23,0.0,2.7,86,0.00,,,0.00,WUHU216HW,2013-07-27 10:22:00,
2013-07-27 03:27:00,56.2,52.0,29.96,NNW,338,0.9,0.9,86,0.00,,,0.00,WUHU216HW,2013-07-27 10:27:00,
2013-07-27 03:32:00,56.2,52.0,29.95,NNW,338,0.2,0.9,86,0.00,,,0.00,WUHU216HW,2013-07-27 10:32:00,
2013-07-27 03:37:00,56.2,52.0,29.96,West,270,0.9,3.8,86,0.00,,,0.00,WUHU216HW,2013-07-27 10:37:00,
2013-07-27 03:42:00,56.2,52.0,29.96,NNW,338,0.0,3.8,86,0.00,,,0.00,WUHU216HW,2013-07-27 10:42:00,
2013-07-27 03:47:00,56.0,52.1,29.96,North,0,1.6,2.0,87,0.00,,,0.00,WUHU216HW,2013-07-27 10:47:00,
2013-07-27 03:52:00,56.0,51.9,29.96,NNE,23,0.0,1.6,86,0.00,,,0.00,WUHU216HW,2013-07-27 10:52:00,
2013-07-27 03:57:00,56.0,52.1,29.96,NNE,23,0.9,1.6,87,0.00,,,0.00,WUHU216HW,2013-07-27 10:57:00,
2013-07-27 04:02:00,56.0,52.1,29.96,East,90,0.2,1.6,87,0.00,,,0.00,WUHU216HW,2013-07-27 11:02:00,
2013-07-27 04:07:00,56.0,52.1,29.96,NNW,338,0.0,1.1,87,0.00,,,0.00,WUHU216HW,2013-07-27 11:07:00,
2013-07-27 04:12:00,56.0,52.1,29.96,NW,315,0.4,2.0,87,0.00,,,0.00,WUHU216HW,2013-07-27 11:12:00,
2013-07-27 04:17:00,56.0,52.1,29.96,North,0,1.1,2.0,87,0.00,,,0.00,WUHU216HW,2013-07-27 11:17:00,
2013-07-27 04:22:00,56.0,52.1,29.96,North,0,0.0,1.1,87,0.00,,,0.00,WUHU216HW,2013-07-27 11:22:00,
2013-07-27 04:27:00,56.2,52.3,29.96,WNW,293,4.0,4.0,87,0.00,,,0.00,WUHU216HW,2013-07-27 11:27:00,
2013-07-27 04:32:00,56.2,52.7,29.96,WSW,248,1.1,4.0,88,0.00,,,0.00,WUHU216HW,2013-07-27 11:32:00,
2013-07-27 04:37:00,56.2,52.7,29.96,NW,315,2.5,4.3,88,0.00,,,0.00,WUHU216HW,2013-07-27 11:37:00,
2013-07-27 04:42:00,56.2,52.7,29.96,WNW,293,1.8,4.3,88,0.00,,,0.00,WUHU216HW,2013-07-27 11:42:00,
2013-07-27 04:47:00,56.2,52.7,29.96,WNW,293,2.9,2.9,88,0.00,,,0.00,WUHU216HW,2013-07-27 11:47:00,
2013-07-27 04:52:00,56.2,52.7,29.96,West,270,1.3,2.9,88,0.00,,,0.00,WUHU216HW,2013-07-27 11:52:00,
2013-07-27 04:57:00,56.2,52.7,29.96,West,270,0.0,1.8,88,0.00,,,0.00,WUHU216HW,2013-07-27 11:57:00,
2013-07-27 05:02:00,56.2,52.7,29.95,NW,315,0.2,1.6,88,0.00,,,0.00,WUHU216HW,2013-07-27 12:02:00,
2013-07-27 05:07:00,56.2,52.7,29.96,West,270,0.0,1.6,88,0.00,,,0.00,WUHU216HW,2013-07-27 12:07:00,
2013-07-27 05:12:00,56.2,52.7,29.96,NNE,23,0.0,1.1,88,0.00,,,0.00,WUHU216HW,2013-07-27 12:12:00,
2013-07-27 05:17:00,56.2,52.3,29.96,NNE,23,1.1,1.1,87,0.00,,,0.00,WUHU216HW,2013-07-27 12:17:00,
2013-07-27 05:22:00,56.3,52.8,29.96,WNW,293,0.0,1.6,88,0.00,,,0.00,WUHU216HW,2013-07-27 12:22:00,
2013-07-27 05:27:00,56.3,52.5,29.96,NNW,338,0.4,1.6,87,0.00,,,0.00,WUHU216HW,2013-07-27 12:27:00,
2013-07-27 05:32:00,56.3,52.5,29.96,West,270,0.9,1.1,87,0.00,,,0.00,WUHU216HW,2013-07-27 12:32:00,
2013-07-27 05:37:00,56.3,52.2,29.96,NNE,23,0.2,1.1,86,0.00,,,0.00,WUHU216HW,2013-07-27 12:37:00,
2013-07-27 05:42:00,56.3,52.2,29.96,NW,315,0.2,1.8,86,0.00,,,0.00,WUHU216HW,2013-07-27 12:42:00,
2013-07-27 05:47:00,56.3,52.2,29.97,North,0,0.4,2.0,86,0.00,,,0.00,WUHU216HW,2013-07-27 12:47:00,
2013-07-27 05:52:00,56.3,52.2,29.97,NW,315,0.9,2.0,86,0.00,,,0.00,WUHU216HW,2013-07-27 12:52:00,
2013-07-27 05:57:00,56.3,52.2,29.97,West,270,0.4,3.1,86,0.00,,,0.00,WUHU216HW,2013-07-27 12:57:00,
2013-07-27 06:02:00,56.2,52.0,29.97,WNW,293,0.0,3.1,86,0.00,,,0.00,WUHU216HW,2013-07-27 13:02:00,
2013-07-27 06:07:00,56.0,51.9,29.97,NW,315,0.2,1.8,86,0.00,,,0.00,WUHU216HW,2013-07-27 13:07:00,
2013-07-27 06:12:00,56.0,51.9,29.97,North,0,0.0,1.1,86,0.00,,,0.00,WUHU216HW,2013-07-27 13:12:00,
2013-07-27 06:17:00,55.8,51.7,29.97,NW,315,0.0,0.7,86,0.00,,,0.00,WUHU216HW,2013-07-27 13:17:00,
2013-07-27 06:22:00,55.8,51.7,29.97,NNE,23,0.0,0.7,86,0.00,,,0.00,WUHU216HW,2013-07-27 13:22:00,
2013-07-27 06:27:00,55.8,51.7,29.97,WNW,293,0.4,1.3,86,0.00,,,0.00,WUHU216HW,2013-07-27 13:27:00,
2013-07-27 06:32:00,55.8,51.7,29.97,NNW,338,0.4,1.3,86,0.00,,,0.00,WUHU216HW,2013-07-27 13:32:00,
2013-07-27 06:37:00,56.0,51.9,29.97,WNW,293,0.7,0.9,86,0.00,,,0.00,WUHU216HW,2013-07-27 13:37:00,
2013-07-27 06:42:00,56.0,51.9,29.97,NNE,23,1.8,1.8,86,0.00,,,0.00,WUHU216HW,2013-07-27 13:42:00,
2013-07-27 06:47:00,56.0,52.1,29.97,NNE,23,0.2,1.8,87,0.00,,,0.00,WUHU216HW,2013-07-27 13:47:00,
2013-07-27 06:52:00,56.0,52.1,29.97,ENE,68,0.7,1.6,87,0.00,,,0.00,WUHU216HW,2013-07-27 13:52:00,
2013-07-27 06:57:00,56.0,51.9,29.97,NE,45,2.0,2.0,86,0.00,,,0.00,WUHU216HW,2013-07-27 13:57:00,
2013-07-27 07:02:00,56.0,52.1,29.97,NNE,23,0.9,2.0,87,0.00,,,0.00,WUHU216HW,2013-07-27 14:02:00,
2013-07-27 07:07:00,56.2,52.3,29.97,East,90,1.8,1.8,87,0.00,,,0.00,WUHU216HW,2013-07-27 14:07:00,
2013-07-27 07:12:00,56.3,52.5,29.97,NE,45,0.2,1.8,87,0.00,,,0.00,WUHU216HW,2013-07-27 14:12:00,
2013-07-27 07:17:00,56.5,52.7,29.97,North,0,0.4,1.1,87,0.00,,,0.00,WUHU216HW,2013-07-27 14:17:00,
2013-07-27 07:22:00,56.7,52.8,29.97,NNE,23,0.0,0.7,87,0.00,,,0.00,WUHU216HW,2013-07-27 14:22:00,
2013-07-27 07:27:00,56.9,52.8,29.97,West,270,0.9,1.1,86,0.00,,,0.00,WUHU216HW,2013-07-27 14:27:00,
2013-07-27 07:32:00,57.2,53.1,29.98,North,0,2.5,2.5,86,0.00,,,0.00,WUHU216HW,2013-07-27 14:32:00,
2013-07-27 07:37:00,57.6,53.7,29.98,East,90,0.7,2.5,87,0.00,,,0.00,WUHU216HW,2013-07-27 14:37:00,
2013-07-27 07:42:00,58.1,54.3,29.97,West,270,1.3,2.2,87,0.00,,,0.00,WUHU216HW,2013-07-27 14:42:00,
2013-07-27 07:47:00,58.5,54.4,29.97,East,90,1.3,2.2,86,0.00,,,0.00,WUHU216HW,2013-07-27 14:47:00,
2013-07-27 07:52:00,58.5,54.0,29.97,SE,135,0.7,2.2,85,0.00,,,0.00,WUHU216HW,2013-07-27 14:52:00,
2013-07-27 07:57:00,58.9,54.4,29.97,North,0,0.4,0.9,85,0.00,,,0.00,WUHU216HW,2013-07-27 14:57:00,
2013-07-27 08:02:00,59.2,54.4,29.97,North,0,1.3,1.8,84,0.00,,,0.00,WUHU216HW,2013-07-27 15:02:00,
2013-07-27 08:07:00,59.6,54.7,29.97,WNW,293,0.4,1.8,84,0.00,,,0.00,WUHU216HW,2013-07-27 15:07:00,
2013-07-27 08:12:00,60.3,55.2,29.97,North,0,0.7,1.3,83,0.00,,,0.00,WUHU216HW,2013-07-27 15:12:00,
2013-07-27 08:17:00,60.7,55.5,29.97,ENE,68,1.3,1.3,83,0.00,,,0.00,WUHU216HW,2013-07-27 15:17:00,
2013-07-27 08:22:00,61.2,55.7,29.97,NNW,338,0.4,1.8,82,0.00,,,0.00,WUHU216HW,2013-07-27 15:22:00,
2013-07-27 08:27:00,61.9,55.7,29.97,ENE,68,1.1,2.7,80,0.00,,,0.00,WUHU216HW,2013-07-27 15:27:00,
2013-07-27 08:32:00,62.3,56.0,29.97,ENE,68,0.9,2.7,80,0.00,,,0.00,WUHU216HW,2013-07-27 15:32:00,
2013-07-27 08:37:00,63.0,56.3,29.97,North,0,2.5,2.5,79,0.00,,,0.00,WUHU216HW,2013-07-27 15:37:00,
2013-07-27 08:42:00,63.7,57.4,29.97,ENE,68,1.1,2.5,80,0.00,,,0.00,WUHU216HW,2013-07-27 15:42:00,
2013-07-27 08:47:00,64.1,57.1,29.97,NW,315,0.4,2.9,78,0.00,,,0.00,WUHU216HW,2013-07-27 15:47:00,
2013-07-27 08:52:00,64.6,57.3,29.97,East,90,0.9,2.9,77,0.00,,,0.00,WUHU216HW,2013-07-27 15:52:00,
2013-07-27 08:57:00,65.2,57.4,29.97,NE,45,1.1,1.3,76,0.00,,,0.00,WUHU216HW,2013-07-27 15:57:00,
2013-07-27 09:02:00,65.9,57.7,29.97,WNW,293,1.8,3.6,75,0.00,,,0.00,WUHU216HW,2013-07-27 16:02:00,
2013-07-27 09:07:00,66.2,57.7,29.97,West,270,1.6,3.6,74,0.00,,,0.00,WUHU216HW,2013-07-27 16:07:00,
2013-07-27 09:12:00,66.8,57.9,29.97,WNW,293,2.2,3.4,73,0.00,,,0.00,WUHU216HW,2013-07-27 16:12:00,
2013-07-27 09:17:00,67.1,58.2,29.96,North,0,0.4,3.4,73,0.00,,,0.00,WUHU216HW,2013-07-27 16:17:00,
2013-07-27 09:22:00,67.5,57.8,29.96,North,0,1.6,3.8,71,0.00,,,0.00,WUHU216HW,2013-07-27 16:22:00,
2013-07-27 09:27:00,67.7,57.6,29.96,North,0,2.2,3.8,70,0.00,,,0.00,WUHU216HW,2013-07-27 16:27:00,
2013-07-27 09:32:00,68.0,58.3,29.96,ESE,113,0.7,3.1,71,0.00,,,0.00,WUHU216HW,2013-07-27 16:32:00,
2013-07-27 09:37:00,68.4,58.3,29.96,SSW,203,1.3,3.1,70,0.00,,,0.00,WUHU216HW,2013-07-27 16:37:00,
2013-07-27 09:42:00,69.1,58.1,29.96,WNW,293,1.3,3.6,68,0.00,,,0.00,WUHU216HW,2013-07-27 16:42:00,
2013-07-27 09:47:00,69.5,58.0,29.96,WNW,293,2.5,4.9,67,0.00,,,0.00,WUHU216HW,2013-07-27 16:47:00,
2013-07-27 09:52:00,69.8,58.0,29.95,WNW,293,4.5,4.9,66,0.00,,,0.00,WUHU216HW,2013-07-27 16:52:00,
2013-07-27 09:57:00,70.0,58.2,29.95,SW,225,2.5,4.5,66,0.00,,,0.00,WUHU216HW,2013-07-27 16:57:00,
2013-07-27 10:02:00,70.4,58.1,29.95,West,270,5.8,5.8,65,0.00,,,0.00,WUHU216HW,2013-07-27 17:02:00,
2013-07-27 10:08:00,70.7,58.3,29.95,SW,225,1.8,5.8,65,0.00,,,0.00,WUHU216HW,2013-07-27 17:08:00,
2013-07-27 10:13:00,71.1,58.7,29.95,WNW,293,1.8,4.0,65,0.00,,,0.00,WUHU216HW,2013-07-27 17:13:00,
2013-07-27 10:18:00,71.5,59.0,29.95,NW,315,1.8,3.4,65,0.00,,,0.00,WUHU216HW,2013-07-27 17:18:00,
2013-07-27 10:23:00,71.8,59.4,29.95,WNW,293,1.8,3.4,65,0.00,,,0.00,WUHU216HW,2013-07-27 17:23:00,
2013-07-27 10:28:00,72.5,59.2,29.95,West,270,2.5,3.6,63,0.00,,,0.00,WUHU216HW,2013-07-27 17:28:00,
2013-07-27 10:33:00,73.1,59.2,29.95,NNW,338,3.1,3.6,62,0.00,,,0.00,WUHU216HW,2013-07-27 17:33:00,
2013-07-27 10:38:00,73.4,59.1,29.95,WNW,293,1.3,3.4,61,0.00,,,0.00,WUHU216HW,2013-07-27 17:38:00,
2013-07-27 10:43:00,73.8,59.0,29.94,WNW,293,4.0,4.0,60,0.00,,,0.00,WUHU216HW,2013-07-27 17:43:00,
2013-07-27 10:48:00,74.2,59.4,29.94,WNW,293,3.4,4.3,60,0.00,,,0.00,WUHU216HW,2013-07-27 17:48:00,
2013-07-27 10:53:00,74.5,59.2,29.94,WNW,293,3.4,4.3,59,0.00,,,0.00,WUHU216HW,2013-07-27 17:53:00,
2013-07-27 10:58:00,74.7,59.4,29.95,West,270,0.9,3.8,59,0.00,,,0.00,WUHU216HW,2013-07-27 17:58:00,
2013-07-27 11:03:00,75.2,59.0,29.95,WNW,293,1.3,3.8,57,0.00,,,0.00,WUHU216HW,2013-07-27 18:03:00,
2013-07-27 11:08:00,75.6,59.8,29.94,WNW,293,3.4,3.8,58,0.00,,,0.00,WUHU216HW,2013-07-27 18:08:00,
2013-07-27 11:13:00,76.1,59.8,29.94,WSW,248,1.6,3.4,57,0.00,,,0.00,WUHU216HW,2013-07-27 18:13:00,
2013-07-27 11:18:00,76.5,59.6,29.94,West,270,1.8,2.7,56,0.00,,,0.00,WUHU216HW,2013-07-27 18:18:00,
2013-07-27 11:23:00,76.9,59.0,29.94,NNW,338,1.1,2.2,54,0.00,,,0.00,WUHU216HW,2013-07-27 18:23:00,
2013-07-27 11:28:00,77.0,59.0,29.94,NW,315,4.3,4.3,54,0.00,,,0.00,WUHU216HW,2013-07-27 18:28:00,
2013-07-27 11:33:00,77.4,59.0,29.94,WNW,293,2.0,4.7,53,0.00,,,0.00,WUHU216HW,2013-07-27 18:33:00,
2013-07-27 11:38:00,77.6,59.0,29.94,WNW,293,0.9,4.7,53,0.00,,,0.00,WUHU216HW,2013-07-27 18:38:00,
2013-07-27 11:43:00,78.1,59.0,29.93,NNW,338,2.9,4.5,52,0.00,,,0.00,WUHU216HW,2013-07-27 18:43:00,
2013-07-27 11:48:00,78.7,59.6,29.93,North,0,2.5,4.5,52,0.00,,,0.00,WUHU216HW,2013-07-27 18:48:00,
2013-07-27 11:53:00,79.2,59.5,29.93,NE,45,2.2,3.4,51,0.00,,,0.00,WUHU216HW,2013-07-27 18:53:00,
2013-07-27 11:58:00,79.4,59.1,29.93,WNW,293,2.9,5.4,50,0.00,,,0.00,WUHU216HW,2013-07-27 18:58:00,
2013-07-27 12:03:00,79.0,59.4,29.93,NW,315,1.3,5.4,51,0.00,,,0.00,WUHU216HW,2013-07-27 19:03:00,
2013-07-27 12:08:00,79.7,60.0,29.93,North,0,2.5,3.8,51,0.00,,,0.00,WUHU216HW,2013-07-27 19:08:00,
2013-07-27 12:13:00,79.9,59.7,29.92,West,270,3.4,5.8,50,0.00,,,0.00,WUHU216HW,2013-07-27 19:13:00,
2013-07-27 12:18:00,79.9,59.0,29.92,West,270,5.6,5.8,49,0.00,,,0.00,WUHU216HW,2013-07-27 19:18:00,
2013-07-27 12:23:00,79.7,58.9,29.92,South,180,4.5,6.3,49,0.00,,,0.00,WUHU216HW,2013-07-27 19:23:00,
2013-07-27 12:28:00,79.7,58.2,29.92,NW,315,4.9,6.3,48,0.00,,,0.00,WUHU216HW,2013-07-27 19:28:00,
2013-07-27 12:33:00,79.9,59.7,29.92,NNW,338,2.7,7.2,50,0.00,,,0.00,WUHU216HW,2013-07-27 19:33:00,
2013-07-27 12:38:00,80.1,58.6,29.92,WNW,293,4.0,7.8,48,0.00,,,0.00,WUHU216HW,2013-07-27 19:38:00,
2013-07-27 12:43:00,80.3,58.8,29.92,WSW,248,6.9,8.5,48,0.00,,,0.00,WUHU216HW,2013-07-27 19:43:00,
2013-07-27 12:48:00,80.6,59.7,29.92,West,270,2.5,8.5,49,0.00,,,0.00,WUHU216HW,2013-07-27 19:48:00,
2013-07-27 12:53:00,80.8,59.2,29.92,West,270,5.6,7.6,48,0.00,,,0.00,WUHU216HW,2013-07-27 19:53:00,
2013-07-27 12:58:00,81.2,60.2,29.91,SW,225,0.7,7.6,49,0.00,,,0.00,WUHU216HW,2013-07-27 19:58:00,
2013-07-27 13:03:00,81.7,60.7,29.91,NW,315,1.8,4.7,49,0.00,,,0.00,WUHU216HW,2013-07-27 20:03:00,
2013-07-27 13:08:00,82.3,59.3,29.91,NW,315,2.0,5.8,46,0.00,,,0.00,WUHU216HW,2013-07-27 20:08:00,
2013-07-27 13:13:00,82.6,59.7,29.91,NNW,338,4.3,5.8,46,0.00,,,0.00,WUHU216HW,2013-07-27 20:13:00,
2013-07-27 13:18:00,83.0,59.4,29.91,WNW,293,1.6,6.0,45,0.00,,,0.00,WUHU216HW,2013-07-27 20:18:00,
2013-07-27 13:23:00,83.2,59.0,29.90,West,270,4.0,6.3,44,0.00,,,0.00,WUHU216HW,2013-07-27 20:23:00,
2013-07-27 13:28:00,83.0,59.4,29.90,NW,315,6.5,6.5,45,0.00,,,0.00,WUHU216HW,2013-07-27 20:28:00,
2013-07-27 13:33:00,83.0,58.8,29.90,WSW,248,4.9,9.2,44,0.00,,,0.00,WUHU216HW,2013-07-27 20:33:00,
2013-07-27 13:38:00,83.0,60.0,29.90,West,270,6.0,9.2,46,0.00,,,0.00,WUHU216HW,2013-07-27 20:38:00,
2013-07-27 13:43:00,83.2,59.0,29.90,NNW,338,2.5,6.7,44,0.00,,,0.00,WUHU216HW,2013-07-27 20:43:00,
2013-07-27 13:48:00,83.5,59.9,29.89,WNW,293,2.5,6.7,45,0.00,,,0.00,WUHU216HW,2013-07-27 20:48:00,
2013-07-27 13:53:00,83.9,59.0,29.89,WSW,248,6.0,6.0,43,0.00,,,0.00,WUHU216HW,2013-07-27 20:53:00,
2013-07-27 13:58:00,83.5,58.7,29.89,WNW,293,6.5,8.5,43,0.00,,,0.00,WUHU216HW,2013-07-27 20:58:00,
2013-07-27 14:03:00,83.7,59.4,29.89,WNW,293,6.9,8.5,44,0.00,,,0.00,WUHU216HW,2013-07-27 21:03:00,
2013-07-27 14:08:00,83.9,59.6,29.89,West,270,7.4,8.3,44,0.00,,,0.00,WUHU216HW,2013-07-27 21:08:00,
2013-07-27 14:13:00,83.9,59.6,29.89,NW,315,2.7,7.4,44,0.00,,,0.00,WUHU216HW,2013-07-27 21:13:00,
2013-07-27 14:18:00,84.1,59.8,29.89,NW,315,6.3,6.9,44,0.00,,,0.00,WUHU216HW,2013-07-27 21:18:00,
2013-07-27 14:23:00,84.2,60.6,29.88,West,270,7.2,7.2,45,0.00,,,0.00,WUHU216HW,2013-07-27 21:23:00,
2013-07-27 14:28:00,84.4,60.1,29.88,NW,315,3.4,7.2,44,0.00,,,0.00,WUHU216HW,2013-07-27 21:28:00,
2013-07-27 14:33:00,84.8,60.4,29.88,SW,225,6.9,6.9,44,0.00,,,0.00,WUHU216HW,2013-07-27 21:33:00,
2013-07-27 14:38:00,85.3,59.7,29.88,NW,315,4.7,6.9,42,0.00,,,0.00,WUHU216HW,2013-07-27 21:38:00,
2013-07-27 14:43:00,85.3,61.6,29.88,NW,315,4.9,6.0,45,0.00,,,0.00,WUHU216HW,2013-07-27 21:43:00,
2013-07-27 14:48:00,85.5,60.5,29.88,NNW,338,1.3,6.5,43,0.00,,,0.00,WUHU216HW,2013-07-27 21:48:00,
2013-07-27 14:53:00,85.7,59.9,29.88,SW,225,4.0,6.9,42,0.00,,,0.00,WUHU216HW,2013-07-27 21:53:00,
2013-07-27 14:58:00,85.3,59.7,29.88,WNW,293,4.9,7.6,42,0.00,,,0.00,WUHU216HW,2013-07-27 21:58:00,
2013-07-27 15:03:00,85.3,60.9,29.87,NW,315,0.7,7.6,44,0.00,,,0.00,WUHU216HW,2013-07-27 22:03:00,
2013-07-27 15:08:00,85.7,59.9,29.87,West,270,5.6,7.8,42,0.00,,,0.00,WUHU216HW,2013-07-27 22:08:00,
2013-07-27 15:13:00,85.5,59.9,29.87,NW,315,5.6,7.8,42,0.00,,,0.00,WUHU216HW,2013-07-27 22:13:00,
2013-07-27 15:18:00,85.0,59.3,29.87,North,0,4.7,7.6,42,0.00,,,0.00,WUHU216HW,2013-07-27 22:18:00,
2013-07-27 15:23:00,84.4,59.5,29.87,North,0,6.9,8.7,43,0.00,,,0.00,WUHU216HW,2013-07-27 22:23:00,
2013-07-27 15:28:00,83.9,59.6,29.87,WNW,293,4.0,9.4,44,0.00,,,0.00,WUHU216HW,2013-07-27 22:28:00,
2013-07-27 15:33:00,83.9,60.2,29.86,NNW,338,6.0,9.4,45,0.00,,,0.00,WUHU216HW,2013-07-27 22:33:00,
2013-07-27 15:38:00,84.1,60.4,29.86,WNW,293,4.0,6.3,45,0.00,,,0.00,WUHU216HW,2013-07-27 22:38:00,
2013-07-27 15:43:00,84.1,59.8,29.86,North,0,4.7,6.3,44,0.00,,,0.00,WUHU216HW,2013-07-27 22:43:00,
2013-07-27 15:48:00,84.8,61.0,29.85,NW,315,7.8,7.8,45,0.00,,,0.00,WUHU216HW,2013-07-27 22:48:00,
2013-07-27 15:53:00,85.3,60.3,29.85,WSW,248,4.7,7.8,43,0.00,,,0.00,WUHU216HW,2013-07-27 22:53:00,
2013-07-27 15:58:00,85.5,59.9,29.85,West,270,3.4,6.5,42,0.00,,,0.00,WUHU216HW,2013-07-27 22:58:00,
2013-07-27 16:03:00,85.9,60.1,29.85,West,270,4.0,4.7,42,0.00,,,0.00,WUHU216HW,2013-07-27 23:03:00,
2013-07-27 16:08:00,85.7,60.6,29.85,WSW,248,2.2,4.7,43,0.00,,,0.00,WUHU216HW,2013-07-27 23:08:00,
2013-07-27 16:13:00,86.0,60.3,29.85,West,270,6.5,6.5,42,0.00,,,0.00,WUHU216HW,2013-07-27 23:13:00,
2013-07-27 16:18:00,86.2,60.5,29.85,WNW,293,4.7,6.5,42,0.00,,,0.00,WUHU216HW,2013-07-27 23:18:00,
2013-07-27 16:23:00,86.4,60.7,29.84,SW,225,5.1,6.7,42,0.00,,,0.00,WUHU216HW,2013-07-27 23:23:00,
2013-07-27 16:28:00,86.4,60.7,29.84,NW,315,4.0,6.7,42,0.00,,,0.00,WUHU216HW,2013-07-27 23:28:00,
2013-07-27 16:33:00,86.0,59.7,29.84,SW,225,2.5,6.5,41,0.00,,,0.00,WUHU216HW,2013-07-27 23:33:00,
2013-07-27 16:38:00,86.0,60.3,29.84,WNW,293,4.5,6.5,42,0.00,,,0.00,WUHU216HW,2013-07-27 23:38:00,
2013-07-27 16:43:00,86.4,60.0,29.84,West,270,3.6,5.8,41,0.00,,,0.00,WUHU216HW,2013-07-27 23:43:00,
2013-07-27 16:48:00,86.8,60.9,29.84,WNW,293,5.1,5.8,42,0.00,,,0.00,WUHU216HW,2013-07-27 23:48:00,
2013-07-27 16:53:00,86.9,60.5,29.84,WSW,248,2.5,5.1,41,0.00,,,0.00,WUHU216HW,2013-07-27 23:53:00,
2013-07-27 16:58:00,87.1,60.7,29.84,WNW,293,5.8,5.8,41,0.00,,,0.00,WUHU216HW,2013-07-27 23:58:00,
2013-07-27 17:03:00,86.9,59.9,29.84,WNW,293,6.9,6.9,40,0.00,,,0.00,WUHU216HW,2013-07-28 00:03:00,
2013-07-27 17:08:00,86.4,60.0,29.84,West,270,5.8,6.9,41,0.00,,,0.00,WUHU216HW,2013-07-28 00:08:00,
2013-07-27 17:13:00,86.0,58.2,29.83,West,270,3.4,6.3,39,0.00,,,0.00,WUHU216HW,2013-07-28 00:13:00,
2013-07-27 17:18:00,86.0,59.7,29.83,NW,315,2.5,3.8,41,0.00,,,0.00,WUHU216HW,2013-07-28 00:18:00,
2013-07-27 17:23:00,86.0,59.7,29.83,NW,315,2.5,2.5,41,0.00,,,0.00,WUHU216HW,2013-07-28 00:23:00,
2013-07-27 17:28:00,86.2,59.9,29.83,North,0,4.3,4.3,41,0.00,,,0.00,WUHU216HW,2013-07-28 00:28:00,
2013-07-27 17:33:00,85.9,58.9,29.83,NW,315,1.1,4.3,40,0.00,,,0.00,WUHU216HW,2013-07-28 00:33:00,
2013-07-27 17:38:00,85.7,58.7,29.83,SSE,158,0.9,4.0,40,0.00,,,0.00,WUHU216HW,2013-07-28 00:38:00,
2013-07-27 17:43:00,85.3,59.1,29.83,NW,315,1.8,4.9,41,0.00,,,0.00,WUHU216HW,2013-07-28 00:43:00,
2013-07-27 17:48:00,84.4,58.2,29.83,NNW,338,4.0,6.5,41,0.00,,,0.00,WUHU216HW,2013-07-28 00:48:00,
2013-07-27 17:53:00,83.9,58.3,29.83,WSW,248,4.3,6.5,42,0.00,,,0.00,WUHU216HW,2013-07-28 00:53:00,
2013-07-27 17:58:00,83.2,57.7,29.83,North,0,4.0,6.9,42,0.00,,,0.00,WUHU216HW,2013-07-28 00:58:00,
2013-07-27 18:03:00,82.4,57.6,29.83,NNE,23,2.0,6.9,43,0.00,,,0.00,WUHU216HW,2013-07-28 01:03:00,
2013-07-27 18:08:00,81.9,57.2,29.83,NNW,338,1.8,5.6,43,0.00,,,0.00,WUHU216HW,2013-07-28 01:08:00,
2013-07-27 18:13:00,81.5,56.8,29.82,NW,315,4.5,5.6,43,0.00,,,0.00,WUHU216HW,2013-07-28 01:13:00,
2013-07-27 18:18:00,81.2,56.5,29.82,NNE,23,0.7,5.4,43,0.00,,,0.00,WUHU216HW,2013-07-28 01:18:00,
2013-07-27 18:23:00,80.8,55.5,29.82,WNW,293,3.1,4.7,42,0.00,,,0.00,WUHU216HW,2013-07-28 01:23:00,
2013-07-27 18:28:00,80.3,55.1,29.82,WNW,293,1.1,8.9,42,0.00,,,0.00,WUHU216HW,2013-07-28 01:28:00,
2013-07-27 18:33:00,79.7,55.2,29.82,WNW,293,4.7,8.9,43,0.00,,,0.00,WUHU216HW,2013-07-28 01:33:00,
2013-07-27 18:38:00,79.4,55.5,29.82,West,270,4.7,7.2,44,0.00,,,0.00,WUHU216HW,2013-07-28 01:38:00,
2013-07-27 18:43:00,78.8,55.0,29.82,West,270,2.5,7.2,44,0.00,,,0.00,WUHU216HW,2013-07-28 01:43:00,
2013-07-27 18:48:00,78.8,55.6,29.82,NW,315,6.5,6.5,45,0.00,,,0.00,WUHU216HW,2013-07-28 01:48:00,
2013-07-27 18:53:00,78.1,55.6,29.82,NNW,338,3.4,6.5,46,0.00,,,0.00,WUHU216HW,2013-07-28 01:53:00,
2013-07-27 18:58:00,77.6,55.7,29.82,NNW,338,5.6,8.1,47,0.00,,,0.00,WUHU216HW,2013-07-28 01:58:00,
2013-07-27 19:03:00,76.9,55.7,29.82,WNW,293,4.9,8.5,48,0.00,,,0.00,WUHU216HW,2013-07-28 02:03:00,
2013-07-27 19:08:00,76.1,55.6,29.83,North,0,4.0,8.5,49,0.00,,,0.00,WUHU216HW,2013-07-28 02:08:00,
2013-07-27 19:13:00,75.4,55.6,29.83,WSW,248,3.8,6.7,50,0.00,,,0.00,WUHU216HW,2013-07-28 02:13:00,
2013-07-27 19:18:00,74.7,55.9,29.83,WNW,293,3.4,6.9,52,0.00,,,0.00,WUHU216HW,2013-07-28 02:18:00,
2013-07-27 19:23:00,73.8,55.5,29.83,West,270,3.8,6.9,53,0.00,,,0.00,WUHU216HW,2013-07-28 02:23:00,
2013-07-27 19:28:00,73.4,55.2,29.83,North,0,0.9,6.0,53,0.00,,,0.00,WUHU216HW,2013-07-28 02:28:00,
2013-07-27 19:33:00,73.1,55.4,29.83,West,270,2.5,5.1,54,0.00,,,0.00,WUHU216HW,2013-07-28 02:33:00,
2013-07-27 19:38:00,72.5,54.8,29.83,North,0,1.3,5.1,54,0.00,,,0.00,WUHU216HW,2013-07-28 02:38:00,
2013-07-27 19:43:00,72.0,54.9,29.83,NW,315,0.4,4.0,55,0.00,,,0.00,WUHU216HW,2013-07-28 02:43:00,
2013-07-27 19:48:00,71.6,55.1,29.83,North,0,2.0,2.9,56,0.00,,,0.00,WUHU216HW,2013-07-28 02:48:00,
2013-07-27 19:53:00,71.3,54.7,29.83,North,0,1.1,2.5,56,0.00,,,0.00,WUHU216HW,2013-07-28 02:53:00,
2013-07-27 19:58:00,70.7,54.7,29.83,NE,45,1.1,2.5,57,0.00,,,0.00,WUHU216HW,2013-07-28 02:58:00,
2013-07-27 20:03:00,70.4,54.5,29.83,NW,315,2.2,4.0,57,0.00,,,0.00,WUHU216HW,2013-07-28 03:03:00,
2013-07-27 20:08:00,69.8,53.9,29.84,North,0,2.0,4.0,57,0.00,,,0.00,WUHU216HW,2013-07-28 03:08:00,
2013-07-27 20:13:00,69.5,54.1,29.84,NW,315,0.4,2.0,58,0.00,,,0.00,WUHU216HW,2013-07-28 03:13:00,
2013-07-27 20:18:00,69.1,54.2,29.84,NW,315,2.5,2.5,59,0.00,,,0.00,WUHU216HW,2013-07-28 03:18:00,
2013-07-27 20:23:00,68.4,54.0,29.84,NNE,23,0.4,2.5,60,0.00,,,0.00,WUHU216HW,2013-07-28 03:23:00,
2013-07-27 20:28:00,68.0,54.1,29.84,SW,225,2.2,2.5,61,0.00,,,0.00,WUHU216HW,2013-07-28 03:28:00,
2013-07-27 20:33:00,67.5,53.6,29.84,NNW,338,0.7,4.5,61,0.00,,,0.00,WUHU216HW,2013-07-28 03:33:00,
2013-07-27 20:38:00,67.1,53.6,29.84,NW,315,2.5,4.5,62,0.00,,,0.00,WUHU216HW,2013-07-28 03:38:00,
2013-07-27 20:43:00,66.6,53.7,29.84,WSW,248,1.1,3.6,63,0.00,,,0.00,WUHU216HW,2013-07-28 03:43:00,
2013-07-27 20:48:00,66.1,53.5,29.84,NNW,338,0.7,2.9,64,0.00,,,0.00,WUHU216HW,2013-07-28 03:48:00,
2013-07-27 20:53:00,65.7,53.2,29.84,NNW,338,0.0,2.5,64,0.00,,,0.00,WUHU216HW,2013-07-28 03:53:00,
2013-07-27 20:58:00,65.5,53.0,29.84,NE,45,1.1,2.5,64,0.00,,,0.00,WUHU216HW,2013-07-28 03:58:00,
2013-07-27 21:01:00,65.2,52.7,29.84,North,0,1.1,1.1,64,0.00,,,0.00,WUHU216HW,2013-07-28 04:01:00,
2013-07-27 21:02:00,65.2,52.7,29.84,NNE,23,0.0,1.1,64,0.00,,,0.00,WUHU216HW,2013-07-28 04:02:00,
2013-07-27 21:07:00,65.0,52.9,29.84,NNW,338,0.4,1.1,65,0.00,,,0.00,WUHU216HW,2013-07-28 04:07:00,
2013-07-27 21:12:00,64.8,52.8,29.84,North,0,0.4,0.9,65,0.00,,,0.00,WUHU216HW,2013-07-28 04:12:00,
2013-07-27 21:17:00,64.4,52.8,29.84,NW,315,1.3,3.4,66,0.00,,,0.00,WUHU216HW,2013-07-28 04:17:00,
2013-07-27 21:22:00,64.3,53.1,29.84,NW,315,0.7,3.4,67,0.00,,,0.00,WUHU216HW,2013-07-28 04:22:00,
2013-07-27 21:27:00,63.9,52.8,29.84,North,0,0.2,1.3,67,0.00,,,0.00,WUHU216HW,2013-07-28 04:27:00,
2013-07-27 21:32:00,63.7,52.6,29.85,NNW,338,0.2,1.3,67,0.00,,,0.00,WUHU216HW,2013-07-28 04:32:00,
2013-07-27 21:37:00,63.2,52.5,29.84,North,0,0.4,1.8,68,0.00,,,0.00,WUHU216HW,2013-07-28 04:37:00,
2013-07-27 21:42:00,62.8,52.5,29.85,NW,315,0.4,1.8,69,0.00,,,0.00,WUHU216HW,2013-07-28 04:42:00,
2013-07-27 21:47:00,62.6,52.7,29.85,North,0,0.4,1.6,70,0.00,,,0.00,WUHU216HW,2013-07-28 04:47:00,
2013-07-27 21:52:00,62.3,52.4,29.85,North,0,0.4,1.8,70,0.00,,,0.00,WUHU216HW,2013-07-28 04:52:00,
2013-07-27 21:57:00,61.9,51.7,29.85,WSW,248,1.8,2.2,69,0.00,,,0.00,WUHU216HW,2013-07-28 04:57:00,
2013-07-27 22:02:00,61.6,52.1,29.85,NNE,23,0.4,2.2,71,0.00,,,0.00,WUHU216HW,2013-07-28 05:02:00,
2013-07-27 22:07:00,61.4,51.9,29.85,WNW,293,1.1,1.1,71,0.00,,,0.00,WUHU216HW,2013-07-28 05:07:00,
2013-07-27 22:12:00,61.2,52.2,29.85,North,0,1.3,1.8,72,0.00,,,0.00,WUHU216HW,2013-07-28 05:12:00,
2013-07-27 22:17:00,60.8,51.8,29.85,NNW,338,1.1,1.8,72,0.00,,,0.00,WUHU216HW,2013-07-28 05:17:00,
2013-07-27 22:22:00,60.7,52.0,29.85,North,0,0.9,1.8,73,0.00,,,0.00,WUHU216HW,2013-07-28 05:22:00,
2013-07-27 22:27:00,60.3,51.7,29.85,NNE,23,1.8,1.8,73,0.00,,,0.00,WUHU216HW,2013-07-28 05:27:00,
2013-07-27 22:32:00,60.1,51.8,29.85,North,0,0.4,3.4,74,0.00,,,0.00,WUHU216HW,2013-07-28 05:32:00,
2013-07-27 22:37:00,59.8,51.5,29.85,North,0,2.0,3.4,74,0.00,,,0.00,WUHU216HW,2013-07-28 05:37:00,
2013-07-27 22:42:00,59.6,51.7,29.85,NNW,338,0.2,2.0,75,0.00,,,0.00,WUHU216HW,2013-07-28 05:42:00,
2013-07-27 22:47:00,59.4,51.8,29.85,North,0,0.9,1.8,76,0.00,,,0.00,WUHU216HW,2013-07-28 05:47:00,
2013-07-27 22:52:00,59.4,51.8,29.84,North,0,1.3,1.3,76,0.00,,,0.00,WUHU216HW,2013-07-28 05:52:00,
2013-07-27 22:57:00,59.2,52.0,29.84,WNW,293,2.5,2.5,77,0.00,,,0.00,WUHU216HW,2013-07-28 05:57:00,
2013-07-27 23:02:00,59.0,51.8,29.85,NNW,338,0.4,2.5,77,0.00,,,0.00,WUHU216HW,2013-07-28 06:02:00,
2013-07-27 23:07:00,59.0,52.2,29.85,North,0,2.5,2.5,78,0.00,,,0.00,WUHU216HW,2013-07-28 06:07:00,
2013-07-27 23:12:00,58.9,52.0,29.85,NNE,23,0.4,2.5,78,0.00,,,0.00,WUHU216HW,2013-07-28 06:12:00,
2013-07-27 23:17:00,58.7,52.2,29.84,North,0,1.1,2.9,79,0.00,,,0.00,WUHU216HW,2013-07-28 06:17:00,
2013-07-27 23:22:00,58.7,52.2,29.85,NNE,23,2.0,2.9,79,0.00,,,0.00,WUHU216HW,2013-07-28 06:22:00,
2013-07-27 23:27:00,58.7,52.2,29.85,North,0,2.2,2.2,79,0.00,,,0.00,WUHU216HW,2013-07-28 06:27:00,
2013-07-27 23:32:00,58.5,52.0,29.84,WNW,293,0.4,2.7,79,0.00,,,0.00,WUHU216HW,2013-07-28 06:32:00,
2013-07-27 23:37:00,58.3,51.8,29.85,NNW,338,1.8,2.7,79,0.00,,,0.00,WUHU216HW,2013-07-28 06:37:00,
2013-07-27 23:42:00,58.3,51.8,29.84,NNE,23,0.7,1.8,79,0.00,,,0.00,WUHU216HW,2013-07-28 06:42:00,
2013-07-27 23:47:00,58.1,51.7,29.85,North,0,0.4,1.8,79,0.00,,,0.00,WUHU216HW,2013-07-28 06:47:00,
2013-07-27 23:52:00,58.1,51.7,29.84,North,0,1.3,1.6,79,0.00,,,0.00,WUHU216HW,2013-07-28 06:52:00,
2013-07-27 23:57:00,58.0,51.5,29.84,North,0,1.1,1.6,79,0.00,,,0.00,WUHU216HW,2013-07-28 06:57:00,